Location: Killam
(52.7910°N, 111.8608°W)
Time: 05:02:00
(UTC+00:00)

A-11 Canister half - Pass Details

Date: 18 February 2026
Orbit: 1524 x 1683 km, 47.3° (Epoch: 13 March)

Event Time Altitude Azimuth Distance (km) Brightness Sun altitude
Rises 05:27:10 0° 283° (WNW) 4,678 12.2 -40.9°
Reaches altitude 10° 05:30:25 10° 276° (W) 3,694 11.4 -41.2°
Enters shadow 05:36:07 33° 245° (WSW) 2,339 9.9 -41.8°
Maximum altitude 05:38:48 40° 211° (SSW) 2,133 - -42.1°
Drops below altitude 10° 05:47:17 10° 147° (SSE) 3,742 - -42.9°
Sets 05:50:37 0° 140° (SE) 4,744 - -43.2°
